Bar Harbor, ME

6:57 PM EDT on October 16, 2017 (GMT -0400)
Hancock County-Bar Harbor

Weather History for KBHB - February, 2014

Change the Weather History Date:

Thursday, February 13, 2014

  Actual Average Record
Temperature  
Mean Temperature 20 °F -  
Max Temperature 35 °F 29 °F 50 °F (1951)
Min Temperature 5 °F 11 °F -16 °F (1954)
Degree Days  
Heating Degree Days 45    
Moisture  
Dew Point 24 °F    
Average Humidity 91    
Maximum Humidity 100    
Minimum Humidity 70    
Precipitation  
Precipitation 0.55 in - - ()
Sea Level Pressure  
Sea Level Pressure 30.05 in    
Wind  
Wind Speed 5 mph (ENE)    
Max Wind Speed 26 mph    
Max Gust Speed 40 mph    
Visibility 6 miles    
Events      
Averages and records for this station are not official NWS values.
T = Trace of Precipitation, MM = Missing Value Source: NWS Daily Summary

Daily Weather History Graph

Daily Weather History Graph

Search for Another Location

Airport or City:

Trip Planner

Search our weather history database for the weather conditions in past years. The results will help you decide how hot, cold, wet, or windy it might be!

Date:

Astronomy

Feb. 13, 2014 Rise Set
Actual Time 6:36 AM EST 4:59 PM EST
Civil Twilight 6:06 AM EST 5:29 PM EST
Nautical Twilight 5:32 AM EST 6:03 PM EST
Astronomical Twilight 4:58 AM EST 6:37 PM EST
Moon 4:04 PM EST (2/13) 5:28 AM EST (2/13)
Length of Visible Light 11h 23m
Length of Day
10h 23m
Waxing Gibbous, 98% of the Moon is Illuminated
Feb 13
Waxing Gibbous
Feb 14
Full
Feb 22
Last Quarter
Mar 1
New
Mar 8
First Quarter

Hourly Weather History & Observations

Time (EST) Temp. Windchill Dew Point Humidity Pressure Visibility Wind Dir Wind Speed Gust Speed Precip Events Conditions
12:15 AM 6.8 °F - 3.2 °F 85% 30.43 in 10.0 mi Calm Calm - N/A   Clear
12:35 AM 6.8 °F - 3.2 °F 85% 30.43 in 10.0 mi Calm Calm - N/A   Clear
12:55 AM 5.0 °F -2.1 °F 1.4 °F 85% 30.43 in 9.0 mi North 3.5 mph - N/A   Clear
1:15 AM 5.0 °F -2.1 °F 1.4 °F 85% 30.42 in 10.0 mi NNW 3.5 mph - N/A   Clear
1:35 AM 6.8 °F - 3.2 °F 85% 30.41 in 10.0 mi Calm Calm - N/A   Mostly Cloudy
1:55 AM 6.8 °F - 5.0 °F 92% 30.41 in 10.0 mi Calm Calm - N/A   Overcast
2:15 AM 8.6 °F - 6.8 °F 92% 30.41 in 10.0 mi Calm Calm - N/A   Overcast
2:35 AM 10.4 °F 4.0 °F 8.6 °F 92% 30.40 in 10.0 mi NNW 3.5 mph - N/A   Overcast
2:55 AM 10.4 °F - 8.6 °F 92% 30.39 in 10.0 mi Calm Calm - N/A   Overcast
3:15 AM 12.2 °F - 8.6 °F 85% 30.39 in 10.0 mi Calm Calm - N/A   Overcast
3:35 AM 12.2 °F - 10.4 °F 92% 30.39 in 10.0 mi Calm Calm - N/A   Overcast
3:55 AM 12.2 °F - 10.4 °F 92% 30.39 in 10.0 mi Calm Calm - N/A   Overcast
4:15 AM 14.0 °F - 12.2 °F 93% 30.40 in 10.0 mi Calm Calm - N/A   Overcast
4:35 AM 15.8 °F - 12.2 °F 86% 30.40 in 10.0 mi Calm Calm - N/A   Overcast
4:55 AM 15.8 °F - 12.2 °F 86% 30.39 in 10.0 mi Calm Calm - N/A   Overcast
5:15 AM 17.6 °F - 15.8 °F 93% 30.39 in 10.0 mi Calm Calm - N/A   Overcast
5:35 AM 19.4 °F - 17.6 °F 93% 30.38 in 10.0 mi Calm Calm - N/A   Overcast
5:55 AM 19.4 °F - 17.6 °F 93% 30.38 in 10.0 mi Calm Calm - N/A   Overcast
6:15 AM 21.2 °F - 17.6 °F 86% 30.36 in 10.0 mi Calm Calm - N/A   Overcast
6:35 AM 21.2 °F - 19.4 °F 93% 30.36 in 10.0 mi Calm Calm - N/A   Overcast
6:55 AM 24.8 °F 19.1 °F 21.2 °F 86% 30.35 in 10.0 mi SE 4.6 mph - N/A   Overcast
7:15 AM 26.6 °F - 23.0 °F 86% 30.35 in 10.0 mi Calm Calm - N/A   Overcast
7:35 AM 26.6 °F - 23.0 °F 86% 30.35 in 10.0 mi Calm Calm - N/A   Overcast
7:55 AM 26.6 °F - 21.2 °F 80% 30.35 in 10.0 mi Calm Calm - N/A   Overcast
8:15 AM 24.8 °F - 21.2 °F 86% 30.34 in 10.0 mi Calm Calm - N/A   Overcast
8:35 AM 28.4 °F 23.3 °F 24.8 °F 86% 30.32 in 10.0 mi ESE 4.6 mph - N/A   Overcast
8:55 AM 30.2 °F 25.4 °F 24.8 °F 80% 30.30 in 10.0 mi ESE 4.6 mph - N/A   Overcast
9:15 AM 30.2 °F 24.3 °F 24.8 °F 80% 30.29 in 10.0 mi SE 5.8 mph - N/A   Overcast
9:35 AM 32.0 °F 25.6 °F 24.8 °F 75% 30.30 in 10.0 mi SE 6.9 mph - N/A   Overcast
9:55 AM 32.0 °F 23.0 °F 24.8 °F 75% 30.30 in 10.0 mi SSE 11.5 mph - N/A   Overcast
10:15 AM 32.0 °F 24.8 °F 24.8 °F 75% 30.28 in 10.0 mi SE 8.1 mph - N/A   Mostly Cloudy
10:35 AM 33.8 °F 28.6 °F 24.8 °F 70% 30.27 in 10.0 mi SE 5.8 mph - N/A   Mostly Cloudy
10:55 AM 33.8 °F 28.6 °F 26.6 °F 75% 30.26 in 10.0 mi SE 5.8 mph - N/A   Overcast
11:15 AM 33.8 °F 27.7 °F 26.6 °F 75% 30.25 in 10.0 mi SE 6.9 mph - N/A   Overcast
11:35 AM 32.0 °F 28.7 °F 28.4 °F 87% 30.23 in 4.0 mi ESE 3.5 mph - N/A   Overcast
11:55 AM 32.0 °F 27.5 °F 28.4 °F 87% 30.21 in 2.5 mi East 4.6 mph - N/A   Overcast
12:15 PM 32.0 °F 26.4 °F 30.2 °F 93% 30.19 in 2.5 mi East 5.8 mph - N/A   Overcast
12:35 PM 32.0 °F 24.8 °F 30.2 °F 93% 30.17 in 2.0 mi East 8.1 mph - N/A   Overcast
12:55 PM 32.0 °F 25.6 °F 30.2 °F 93% 30.15 in 2.0 mi East 6.9 mph - N/A   Overcast
1:15 PM 32.0 °F 25.6 °F 30.2 °F 93% 30.14 in 2.5 mi East 6.9 mph - N/A   Overcast
1:35 PM 32.0 °F 26.4 °F 32.0 °F 100% 30.12 in 1.5 mi East 5.8 mph - N/A   Overcast
1:55 PM 32.0 °F 24.2 °F 32.0 °F 100% 30.10 in 1.5 mi ENE 9.2 mph - N/A   Overcast
2:35 PM 32.0 °F 24.8 °F 32.0 °F 100% 30.06 in 1.5 mi ENE 8.1 mph - N/A   Overcast
2:55 PM 32.0 °F 23.6 °F 30.2 °F 93% 30.03 in 1.8 mi NE 10.4 mph - N/A   Overcast
3:15 PM 32.0 °F 23.6 °F 30.2 °F 93% 30.00 in 1.0 mi NE 10.4 mph - 0.01 in   Overcast
3:35 PM 32.0 °F 23.6 °F 32.0 °F 100% 29.98 in 1.2 mi ENE 10.4 mph - 0.01 in   Overcast
3:55 PM 32.0 °F 24.2 °F 32.0 °F 100% 29.96 in 1.0 mi NE 9.2 mph 18.4 mph 0.02 in   Overcast
4:15 PM 32.0 °F 22.1 °F 32.0 °F 100% 29.93 in 0.8 mi NE 13.8 mph 19.6 mph N/A   Overcast
4:35 PM 32.0 °F 23.0 °F 32.0 °F 100% 29.91 in 0.5 mi NE 11.5 mph - 0.01 in   Overcast
4:55 PM 32.0 °F 23.0 °F 32.0 °F 100% 29.88 in 0.5 mi NE 11.5 mph - 0.02 in   Overcast
5:15 PM 32.0 °F 22.5 °F 32.0 °F 100% 29.85 in 0.8 mi NE 12.7 mph 18.4 mph N/A   Overcast
5:35 PM 32.0 °F 21.6 °F 30.2 °F 93% 29.83 in 1.0 mi NE 15.0 mph 24.2 mph 0.01 in   Overcast
5:55 PM 33.8 °F 23.9 °F 32.0 °F 93% 29.81 in 1.0 mi NE 15.0 mph 24.2 mph 0.01 in   Overcast
6:15 PM 33.8 °F 23.9 °F 32.0 °F 93% 29.79 in 1.0 mi NE 15.0 mph 25.3 mph 0.01 in   Overcast
6:35 PM 33.8 °F 23.2 °F 32.0 °F 93% 29.76 in 0.5 mi NE 17.3 mph 23.0 mph 0.02 in   Overcast
6:55 PM 33.8 °F 22.2 °F 32.0 °F 93% 29.72 in 0.8 mi NE 20.7 mph 28.8 mph 0.04 in   Overcast
7:15 PM 33.8 °F 21.9 °F 33.8 °F 100% 29.67 in 0.8 mi NE 21.9 mph 26.5 mph 0.02 in   Overcast
7:35 PM 33.8 °F 22.2 °F 33.8 °F 100% 29.63 in 1.8 mi NE 20.7 mph 33.4 mph 0.05 in   Overcast
7:55 PM 33.8 °F 20.8 °F 33.8 °F 100% 29.55 in 2.5 mi NE 26.5 mph 40.3 mph 0.09 in   Overcast
8:15 PM 33.8 °F 20.8 °F 33.8 °F 100% 29.53 in 4.0 mi NNE 26.5 mph 32.2 mph 0.07 in   Overcast
8:35 PM 33.8 °F 21.9 °F 33.8 °F 100% 29.51 in 2.5 mi NE 21.9 mph 34.5 mph 0.13 in   Overcast
8:55 PM 33.8 °F 21.3 °F 33.8 °F 100% 29.47 in 2.0 mi NE 24.2 mph 33.4 mph 0.20 in   Overcast
9:15 PM 35.6 °F 24.5 °F 33.8 °F 93% 29.44 in 1.5 mi NE 20.7 mph 33.4 mph 0.05 in   Overcast
9:35 PM 35.6 °F 24.5 °F 33.8 °F 93% 29.40 in 2.0 mi NE 20.7 mph 31.1 mph 0.09 in   Overcast
9:55 PM 33.8 °F 22.2 °F 33.8 °F 100% 29.37 in 2.5 mi NE 20.7 mph 32.2 mph 0.11 in   Overcast
10:15 PM 33.8 °F 24.3 °F 32.0 °F 93% 29.35 in 4.0 mi NE 13.8 mph 28.8 mph 0.01 in   Overcast
10:35 PM 35.6 °F 26.2 °F 33.8 °F 93% 29.33 in 5.0 mi NE 15.0 mph 28.8 mph 0.02 in   Overcast
10:55 PM 35.6 °F 25.5 °F 33.8 °F 93% 29.30 in 3.0 mi NE 17.3 mph 27.6 mph 0.03 in   Overcast
11:15 PM 35.6 °F 25.2 °F 33.8 °F 93% 29.27 in 3.0 mi NE 18.4 mph 26.5 mph 0.03 in   Overcast
11:35 PM 35.6 °F 27.1 °F 33.8 °F 93% 29.25 in 3.0 mi NE 12.7 mph 24.2 mph 0.03 in   Overcast
11:55 PM 35.6 °F 25.5 °F 33.8 °F 93% 29.21 in 4.0 mi NE 17.3 mph 28.8 mph 0.03 in   Overcast